User: anonymous   Login
Location: Unspecified
(0.0000°N, 0.0000°E)
Time: 06:10:05
(UTC+00:00)
Language:

TERCEL - Orbit

View from above orbital plane
View from above orbital plane
View from above satellite
View from above satellite

Ground track
Ground track

The orbit data is extracted from the following two-line orbital elements,

1 20547U 90028B   17296.50585416  .00000595  00000-0  22921-4 0  9995
2 20547  94.1072 199.4408 0085776 139.9908 220.7699 15.24025401518722
Epoch (UTC): 23 October 2017 12:08:25
Eccentricity: 0.0085776
inclination: 94.1072°
perigee height: 435 km
apogee height: 552 km
right ascension of ascending node: 199.4408°
argument of perigee: 139.9908°
revolutions per day: 15.24025401
mean anomaly at epoch: 220.7699°
orbit number at epoch: 51872

The dashed part of the orbit path shows where the satellite is in the earth's shadow,  

DLR